TimeCDT,TemperatureF,Dew PointF,Humidity,Sea Level PressureIn,VisibilityMPH,Wind Direction,Wind SpeedMPH,Gust SpeedMPH,PrecipitationIn,Events,Conditions,WindDirDegrees,DateUTC
12:53 AM,33.1,23.0,66,29.90,10.0,North,11.5,17.3,N/A,,Overcast,10,2013-03-25 05:53:00
1:53 AM,33.1,23.0,66,29.91,10.0,NNE,10.4,16.1,N/A,,Overcast,20,2013-03-25 06:53:00
2:53 AM,32.0,21.9,66,29.91,10.0,NNE,12.7,21.9,N/A,,Overcast,20,2013-03-25 07:53:00
3:53 AM,30.9,19.9,64,29.92,10.0,North,8.1,-,N/A,,Overcast,10,2013-03-25 08:53:00
4:53 AM,28.9,18.0,64,29.93,10.0,North,5.8,-,N/A,,Clear,10,2013-03-25 09:53:00
5:53 AM,28.0,17.1,63,29.95,10.0,North,3.5,-,N/A,,Scattered Clouds,350,2013-03-25 10:53:00
6:53 AM,27.0,18.0,69,29.97,10.0,North,8.1,-,N/A,,Mostly Cloudy,350,2013-03-25 11:53:00
7:09 AM,26.6,17.6,69,29.94,10.0,North,8.1,-,N/A,,Mostly Cloudy,10,2013-03-25 12:09:00
7:53 AM,27.0,19.0,72,29.99,10.0,North,4.6,-,N/A,,Overcast,360,2013-03-25 12:53:00
8:31 AM,28.4,19.4,69,29.97,10.0,North,5.8,-,N/A,,Scattered Clouds,350,2013-03-25 13:31:00
8:53 AM,28.0,19.9,72,30.01,10.0,North,6.9,-,N/A,,Partly Cloudy,350,2013-03-25 13:53:00
9:53 AM,30.9,21.0,67,30.02,10.0,North,9.2,-,N/A,,Scattered Clouds,360,2013-03-25 14:53:00
10:02 AM,32.0,21.2,64,30.00,10.0,North,6.9,-,N/A,,Mostly Cloudy,350,2013-03-25 15:02:00
10:53 AM,33.1,21.0,61,30.04,10.0,NNE,9.2,-,N/A,,Mostly Cloudy,20,2013-03-25 15:53:00
11:35 AM,33.8,23.0,65,30.01,10.0,NNE,11.5,-,N/A,,Overcast,20,2013-03-25 16:35:00
11:53 AM,34.0,21.9,61,30.04,10.0,North,8.1,-,N/A,,Overcast,350,2013-03-25 16:53:00
12:53 PM,35.1,21.0,57,30.04,10.0,NNW,8.1,-,N/A,,Overcast,340,2013-03-25 17:53:00
1:53 PM,36.0,21.9,57,30.04,10.0,NNW,9.2,-,N/A,,Overcast,340,2013-03-25 18:53:00
2:53 PM,35.1,21.9,59,30.06,10.0,NW,11.5,-,N/A,,Overcast,320,2013-03-25 19:53:00
3:53 PM,36.0,21.9,57,30.06,10.0,North,10.4,-,N/A,,Overcast,350,2013-03-25 20:53:00
4:53 PM,36.0,23.0,59,30.09,10.0,NNW,15.0,20.7,N/A,,Overcast,340,2013-03-25 21:53:00
5:53 PM,36.0,23.0,59,30.10,10.0,NNW,5.8,-,N/A,,Overcast,330,2013-03-25 22:53:00
6:53 PM,36.0,23.0,59,30.12,10.0,NNW,5.8,-,N/A,,Overcast,330,2013-03-25 23:53:00
7:53 PM,35.1,23.0,61,30.15,10.0,NW,6.9,-,N/A,,Overcast,310,2013-03-26 00:53:00
8:53 PM,35.1,21.9,59,30.15,10.0,NW,5.8,-,N/A,,Overcast,310,2013-03-26 01:53:00
9:53 PM,34.0,21.9,61,30.17,10.0,WNW,3.5,-,N/A,,Overcast,300,2013-03-26 02:53:00
10:53 PM,35.1,19.9,54,30.17,10.0,NNW,6.9,-,N/A,,Overcast,330,2013-03-26 03:53:00
11:53 PM,34.0,19.0,54,30.18,10.0,NW,4.6,-,N/A,,Mostly Cloudy,310,2013-03-26 04:53:00